CW2220 Weather Reports


Display with metric or nautical units.
time (UTC)temp
F
wind
direction
speed
MPH
gust
MPH
rain 1hr
in
rain 24hr
in
rain mn
in
humidity
%
barometer
mb
20260510074539 66 0 0.0 0.0 0.00 3.02 0.00 98 1011.9
20260510073039 66 0 0.0 0.0 0.00 3.02 0.00 98 1011.9
20260510071537 66 0 0.0 0.0 0.00 3.02 0.00 98 1011.7
20260510070045 66 0 0.0 0.0 0.00 3.02 0.00 97 1011.7
20260510064534 67 0 0.0 0.0 0.00 3.02 0.00 97 1011.8
20260510063039 67 0 0.0 0.0 0.00 3.02 0.00 97 1011.7
20260510061537 67 0 0.0 0.0 0.00 3.02 0.00 97 1011.9
20260510060044 68 0 0.0 0.0 0.00 3.02 0.00 97 1012.0
20260510054535 68 0 0.0 0.0 0.00 3.02 0.00 97 1011.9
20260510053035 68 0 0.0 0.0 0.00 3.02 0.00 96 1012.1
20260510051533 69 0 0.0 2.0 0.00 3.02 0.00 96 1011.9
20260510050035 69 25 1.0 3.0 0.00 3.02 0.00 96 1011.8
20260510044536 69 264 1.0 3.0 0.00 3.02 3.02 96 1012.0
20260510043036 70 0 0.0 4.0 0.00 3.02 3.02 96 1012.1
20260510041532 70 334 1.0 5.0 0.00 3.02 3.02 96 1012.0
20260510040033 70 137 2.0 7.0 0.00 3.02 3.02 96 1011.5
20260510034536 70 206 2.0 9.0 0.00 3.02 3.02 97 1011.7
20260510033046 69 195 5.0 11.0 0.00 3.02 3.02 97 1011.9
20260510031538 69 200 6.0 12.0 0.00 3.02 3.02 97 1011.6
20260510030034 69 171 6.0 10.0 0.00 3.02 3.02 97 1011.9
20260510024532 69 170 3.0 8.0 0.00 3.02 3.02 97 1012.4
20260510023037 69 151 3.0 6.0 0.00 3.02 3.02 97 1012.3
20260510021611 69 200 2.0 6.0 0.00 3.02 3.02 97 1012.2
20260510020036 69 174 1.0 4.0 0.00 3.02 3.02 96 1012.4
20260510014547 69 48 2.0 7.0 0.00 3.02 3.02 97 1012.4
20260510013033 69 175 1.0 7.0 0.00 3.02 3.02 97 1012.2
20260510011535 69 163 2.0 4.0 0.00 3.02 3.02 97 1011.9
20260510010043 70 16 1.0 9.0 0.00 3.02 3.02 97 1011.8
20260510004535 70 0 0.0 3.0 0.00 3.02 3.02 97 1011.5
20260510003034 70 0 0.0 4.0 0.00 3.02 3.02 97 1011.4
20260510001539 70 99 2.0 4.0 0.00 3.02 3.02 97 1011.5
20260510000033 70 150 2.0 6.0 0.00 3.02 3.02 98 1011.2
20260509234536 70 195 2.0 6.0 0.00 3.02 3.02 98 1010.9
20260509233035 69 0 2.0 6.0 0.00 3.02 3.02 99 1011.1
20260509231534 69 51 3.0 7.0 0.00 3.02 3.02 99 1010.7
20260509230039 69 50 2.0 7.0 0.00 3.02 3.02 99 1010.4
20260509224536 68 114 3.0 11.0 0.01 3.02 3.02 99 1010.2
20260509223038 69 45 2.0 9.0 0.02 3.02 3.02 99 1009.7
20260509221538 68 5 4.0 13.0 0.02 3.02 3.02 99 1009.3
20260509220034 68 76 4.0 11.0 0.08 3.02 3.02 99 1009.7
20260509214538 68 57 4.0 8.0 0.09 3.01 3.01 99 1009.9
20260509213037 68 72 2.0 9.0 0.09 3.00 3.00 99 1010.9
20260509211536 68 43 4.0 9.0 0.11 3.00 3.00 99 1010.6
20260509210039 68 180 1.0 4.0 0.09 2.94 2.94 99 1010.9
20260509204535 68 341 1.0 6.0 0.37 2.92 2.92 99 1011.3
20260509203037 68 350 2.0 9.0 1.15 2.91 2.91 99 1011.2
20260509201539 68 200 1.0 11.0 1.67 2.89 2.89 99 1010.4
20260509200037 68 81 0.0 12.0 1.86 2.84 2.84 99 1010.8
20260509194550 68 183 5.0 14.0 1.56 2.56 2.53 98 1011.2
20260509193035 68 35 2.0 8.0 0.76 1.75 1.72 98 1011.1
20260509191535 68 5 3.0 7.0 0.36 1.25 1.22 98 1011.2
20260509190036 68 202 2.0 8.0 0.20 1.01 0.98 98 1011.5
20260509184535 68 53 5.0 14.0 0.43 1.52 0.97 98 1010.8
20260509183032 68 44 5.0 12.0 0.83 1.51 0.96 98 1011.1
20260509181538 68 96 2.0 9.0 0.78 1.41 0.86 98 1011.3
20260509180049 68 347 1.0 8.0 0.72 1.32 0.77 97 1011.7
20260509174535 68 150 3.0 8.0 0.48 1.07 0.52 97 1012.0
20260509173050 68 189 1.0 7.0 0.09 0.68 0.13 97 1011.7
20260509171537 68 59 2.0 7.0 0.03 0.62 0.07 97 1011.1
20260509170040 68 69 2.0 9.0 0.01 0.60 0.05 96 1011.4
20260509164537 68 0 2.0 9.0 0.00 0.60 0.04 96 1011.4
20260509163036 68 5 3.0 8.0 0.00 0.60 0.04 96 1011.6
20260509161541 68 119 2.0 11.0 0.00 0.60 0.04 96 1011.1
20260509160036 68 82 4.0 11.0 0.00 0.60 0.04 95 1011.5
20260509154543 68 74 6.0 12.0 0.00 0.64 0.04 96 1011.7
20260509153051 68 61 4.0 11.0 0.00 0.64 0.04 97 1011.3
20260509151535 67 106 4.0 13.0 0.00 0.64 0.04 97 1011.3
20260509150033 68 93 4.0 11.0 0.04 0.64 0.04 97 1011.5
20260509144533 68 109 6.0 15.0 0.04 0.64 0.04 97 1011.2
20260509143040 69 31 7.0 14.0 0.04 0.64 0.04 97 1010.9
20260509141540 70 5 4.0 9.0 0.04 0.64 0.04 97 1010.7
20260509140047 70 46 4.0 10.0 0.00 0.60 0.00 97 1010.8
20260509134534 73 73 3.0 9.0 0.00 0.60 0.00 96 1010.9
20260509133031 76 0 0.0 3.0 0.00 0.60 0.00 98 1010.4
20260509131537 76 0 0.0 3.0 0.00 0.60 0.00 98 1010.7
20260509130036 76 209 1.0 3.0 0.00 0.60 0.00 98 1010.3
20260509124535 76 0 0.0 2.0 0.00 0.60 0.00 98 1010.4
20260509123034 75 0 0.0 2.0 0.00 0.60 0.00 98 1010.2
20260509121533 75 209 1.0 2.0 0.00 0.60 0.00 98 1010.2
20260509120030 75 0 0.0 0.0 0.00 0.60 0.00 98 1010.3
20260509114537 74 0 0.0 0.0 0.00 0.60 0.00 98 1010.3
20260509113035 74 0 0.0 2.0 0.00 0.60 0.00 98 1010.2
20260509111535 74 0 0.0 2.0 0.00 0.60 0.00 98 1009.9
20260509110040 74 0 0.0 1.0 0.00 0.60 0.00 98 1009.7
20260509104537 74 5 0.0 1.0 0.00 0.60 0.00 98 1009.5
20260509103043 74 134 0.0 4.0 0.00 0.60 0.00 98 1009.3
20260509101535 74 0 0.0 4.0 0.00 0.60 0.00 97 1009.1
20260509100035 74 0 0.0 3.0 0.00 0.60 0.00 97 1009.1
20260509094550 74 200 2.0 5.0 0.00 0.60 0.00 97 1008.9
20260509093030 74 198 1.0 6.0 0.00 0.60 0.00 97 1009.0
20260509091545 74 182 2.0 7.0 0.00 0.60 0.00 97 1009.1
20260509090041 74 146 0.0 6.0 0.00 0.60 0.00 97 1009.0
20260509084535 74 201 2.0 6.0 0.00 0.60 0.00 97 1008.7
20260509083037 73 179 2.0 8.0 0.00 0.60 0.00 97 1008.7
20260509081536 73 195 2.0 9.0 0.00 0.60 0.00 97 1008.6
20260509080044 73 148 1.0 4.0 0.00 0.60 0.00 97 1009.1